Total_Precipitation_Accumulation
0.01 0.02 0.01 0.00 0.00 0.00 0.00 0.00 0.00 0.00 0.00 0.00 0.00 0.00 0.00 0.00 0.00 0.00 0.00 0.00 0.00 0.00 0.00 0.00 0.01 0.02 0.09 0.21 0.27 0.35 0.35 0.32 0.35 0.30 0.24 0.15 0.16 0.17 0.16 0.29 0.43 0.35 0.38
0.00 0.01 0.00 0.00 0.00 0.00 0.00 0.00 0.00 0.00 0.00 0.00 0.00 0.00 0.00 0.00 0.00 0.00 0.00 0.00 0.00 0.00 0.00 0.00 0.04 0.12 0.17 0.23 0.36 0.37 0.40 0.40 0.37 0.53 0.55 1.00 0.53 0.26 0.23 0.31 0.38 0.46 0.45
0.00 0.00 0.00 0.00 0.00 0.00 0.00 0.00 0.00 0.00 0.00 0.00 0.00 0.00 0.00 0.00 0.00 0.00 0.00 0.00 0.00 0.00 0.00 0.02 0.09 0.14 0.22 0.22 0.21 0.28 0.38 0.47 0.42 0.38 0.50 1.30 1.80 0.13 0.27 0.35 0.31 0.20 0.30
0.00 0.00 0.00 0.00 0.00 0.00 0.00 0.00 0.00 0.00 0.00 0.00 0.00 0.00 0.00 0.00 0.00 0.00 0.00 0.00 0.00 0.00 0.02 0.08 0.14 0.17 0.20 0.24 0.26 0.28 0.37 0.52 0.22 0.12 0.13 0.61 1.67 0.25 0.44 0.60 0.42 0.34 0.32
0.00 0.00 0.00 0.00 0.00 0.00 0.00 0.00 0.00 0.00 0.00 0.00 0.00 0.00 0.00 0.00 0.00 0.00 0.00 0.00 0.01 0.08 0.17 0.16 0.16 0.18 0.24 0.23 0.24 0.27 0.29 0.10 0.06 0.08 0.03 0.47 0.31 0.26 0.52 0.58 0.40 0.33 0.33
0.00 0.00 0.00 0.00 0.00 0.00 0.00 0.00 0.00 0.00 0.00 0.00 0.00 0.00 0.00 0.00 0.00 0.00 0.00 0.00 0.03 0.17 0.19 0.23 0.22 0.21 0.28 0.23 0.22 0.23 0.31 0.24 0.14 0.08 0.02 0.17 0.22 0.30 0.18 0.03 0.10 0.08 0.17
0.00 0.00 0.00 0.00 0.00 0.00 0.00 0.00 0.00 0.00 0.00 0.00 0.00 0.00 0.00 0.00 0.00 0.00 0.00 0.00 0.02 0.13 0.18 0.18 0.26 0.23 0.24 0.18 0.23 0.16 0.28 0.20 0.13 0.08 0.04 0.04 0.08 0.22 0.15 0.01 0.07 0.03 0.03
0.00 0.00 0.00 0.01 0.01 0.01 0.00 0.00 0.00 0.00 0.00 0.00 0.00 0.00 0.00 0.00 0.02 0.04 0.04 0.03 0.11 0.22 0.21 0.21 0.24 0.24 0.18 0.17 0.22 0.11 0.11 0.03 0.17 0.28 0.04 0.02 0.02 0.11 0.08 0.02 0.01 0.00 0.01
0.00 0.00 0.00 0.01 0.01 0.01 0.00 0.00 0.00 0.00 0.00 0.00 0.00 0.00 0.00 0.00 0.06 0.15 0.11 0.07 0.12 0.20 0.25 0.25 0.20 0.21 0.13 0.16 0.13 0.07 0.02 0.00 0.01 0.07 0.03 0.02 0.08 0.10 0.06 0.04 0.04 0.05 0.06
0.00 0.00 0.00 0.00 0.01 0.01 0.00 0.00 0.00 0.00 0.00 0.00 0.00 0.00 0.00 0.00 0.01 0.04 0.07 0.05 0.09 0.18 0.26 0.18 0.15 0.17 0.11 0.13 0.08 0.09 0.02 0.00 0.02 0.03 0.06 0.06 0.09 0.07 0.07 0.03 0.06 0.09 0.12
0.00 0.00 0.00 0.00 0.00 0.00 0.00 0.00 0.00 0.00 0.00 0.00 0.00 0.00 0.00 0.02 0.03 0.00 0.00 0.02 0.10 0.21 0.25 0.12 0.15 0.09 0.02 0.05 0.06 0.04 0.04 0.00 0.00 0.00 0.02 0.07 0.07 0.05 0.06 0.07 0.05 0.07 0.10
0.00 0.00 0.00 0.00 0.00 0.00 0.00 0.00 0.00 0.00 0.00 0.00 0.00 0.00 0.01 0.03 0.01 0.00 0.00 0.01 0.00 0.06 0.11 0.18 0.09 0.03 0.03 0.03 0.03 0.04 0.03 0.01 0.00 0.00 0.06 0.16 0.14 0.08 0.05 0.06 0.07 0.09 0.11
0.00 0.00 0.00 0.00 0.00 0.00 0.00 0.00 0.00 0.00 0.01 0.01 0.00 0.00 0.01 0.04 0.01 0.02 0.00 0.01 0.01 0.00 0.00 0.04 0.02 0.05 0.13 0.07 0.02 0.04 0.00 0.00 0.00 0.00 0.13 0.12 0.17 0.11 0.08 0.11 0.11 0.11 0.08
0.00 0.00 0.00 0.00 0.00 0.00 0.00 0.00 0.00 0.00 0.01 0.01 0.00 0.00 0.00 0.00 0.00 0.02 0.03 0.00 0.00 0.02 0.02 0.05 0.04 0.11 0.13 0.12 0.08 0.10 0.00 0.00 0.00 0.00 0.08 0.14 0.10 0.09 0.13 0.14 0.15 0.11 0.09
0.00 0.00 0.00 0.00 0.00 0.00 0.00 0.00 0.00 0.00 0.01 0.00 0.00 0.00 0.00 0.00 0.00 0.00 0.00 0.00 0.00 0.01 0.00 0.03 0.07 0.17 0.10 0.13 0.11 0.02 0.00 0.00 0.00 0.00 0.01 0.09 0.13 0.06 0.09 0.13 0.15 0.15 0.13
0.00 0.00 0.00 0.00 0.00 0.00 0.00 0.00 0.00 0.00 0.01 0.00 0.00 0.00 0.00 0.00 0.00 0.00 0.00 0.00 0.00 0.00 0.01 0.04 0.10 0.16 0.23 0.06 0.02 0.07 0.10 0.01 0.00 0.00 0.00 0.02 0.06 0.07 0.03 0.05 0.12 0.10 0.09
0.00 0.00 0.00 0.00 0.00 0.00 0.00 0.00 0.00 0.00 0.00 0.00 0.00 0.03 0.00 0.00 0.00 0.00 0.00 0.00 0.00 0.00 0.01 0.01 0.10 0.14 0.13 0.14 0.05 0.06 0.08 0.02 0.01 0.01 0.00 0.00 0.00 0.02 0.02 0.01 0.02 0.03 0.03
0.00 0.00 0.00 0.00 0.00 0.00 0.00 0.00 0.00 0.00 0.00 0.00 0.00 0.00 0.00 0.00 0.00 0.00 0.02 0.01 0.00 0.00 0.01 0.02 0.10 0.18 0.24 0.09 0.05 0.05 0.04 0.02 0.01 0.01 0.01 0.00 0.00 0.00 0.00 0.01 0.01 0.02 0.01
0.00 0.00 0.00 0.00 0.00 0.00 0.00 0.00 0.00 0.00 0.00 0.00 0.00 0.00 0.00 0.00 0.00 0.01 0.00 0.01 0.01 0.00 0.00 0.00 0.01 0.07 0.16 0.17 0.12 0.04 0.03 0.01 0.00 0.00 0.00 0.00 0.00 0.00 0.00 0.00 0.00 0.01 0.01
0.00 0.00 0.00 0.00 0.00 0.00 0.00 0.00 0.00 0.00 0.00 0.00 0.00 0.00 0.00 0.00 0.01 0.02 0.00 0.04 0.01 0.00 0.00 0.00 0.06 0.11 0.30 0.16 0.04 0.05 0.05 0.01 0.00 0.00 0.00 0.00 0.00 0.00 0.00 0.00 0.00 0.00 0.00
0.00 0.00 0.00 0.00 0.00 0.00 0.00 0.00 0.00 0.00 0.00 0.00 0.00 0.00 0.00 0.00 0.02 0.02 0.00 0.02 0.02 0.00 0.00 0.00 0.01 0.13 0.38 0.11 0.04 0.01 0.01 0.01 0.00 0.00 0.00 0.00 0.00 0.00 0.00 0.00 0.00 0.00 0.00
0.01 0.00 0.00 0.00 0.00 0.00 0.00 0.00 0.00 0.00 0.00 0.00 0.00 0.00 0.00 0.00 0.10 0.04 0.01 0.01 0.09 0.10 0.00 0.00 0.00 0.09 0.12 0.26 0.11 0.04 0.03 0.00 0.00 0.00 0.00 0.00 0.00 0.00 0.00 0.00 0.00 0.00 0.00
0.00 0.00 0.00 0.00 0.00 0.00 0.00 0.00 0.00 0.00 0.00 0.00 0.00 0.00 0.00 0.00 0.03 0.06 0.01 0.03 0.06 0.10 0.03 0.00 0.00 0.00 0.10 0.18 0.21 0.05 0.03 0.02 0.00 0.00 0.00 0.00 0.00 0.00 0.00 0.00 0.00 0.00 0.00
0.00 0.00 0.01 0.01 0.01 0.00 0.00 0.00 0.00 0.00 0.00 0.00 0.00 0.00 0.00 0.00 0.00 0.04 0.06 0.07 0.06 0.04 0.04 0.00 0.00 0.00 0.06 0.12 0.22 0.39 0.08 0.00 0.00 0.00 0.00 0.00 0.00 0.00 0.00 0.00 0.00 0.00 0.00
0.00 0.00 0.03 0.02 0.01 0.01 0.00 0.00 0.00 0.00 0.00 0.00 0.00 0.00 0.00 0.00 0.00 0.00 0.01 0.04 0.08 0.06 0.01 0.00 0.00 0.00 0.00 0.08 0.17 0.25 0.07 0.00 0.01 0.00 0.00 0.00 0.00 0.00 0.00 0.00 0.00 0.00 0.00
0.00 0.10 0.10 0.01 0.00 0.00 0.00 0.00 0.00 0.00 0.00 0.01 0.00 0.00 0.00 0.00 0.00 0.00 0.01 0.00 0.01 0.02 0.02 0.00 0.00 0.00 0.00 0.02 0.04 0.17 0.14 0.02 0.02 0.00 0.00 0.00 0.00 0.00 0.00 0.00 0.00 0.00 0.00